Time,TemperatureF,DewpointF,PressureIn,WindDirection,WindDirectionDegrees,WindSpeedMPH,WindSpeedGustMPH,Humidity,HourlyPrecipIn,Conditions,Clouds,dailyrainin,SoftwareType,DateUTC
2014-12-29 00:01:00,12.5,6.1,30.31,NNE,21,1.0,12.0,75,0.00,,,0.00,Wunderground v.1.15,2014-12-29 06:01:00,
2014-12-29 00:06:00,12.4,5.7,30.31,NNE,14,2.0,12.0,74,0.00,,,0.00,Wunderground v.1.15,2014-12-29 06:06:00,
2014-12-29 00:11:00,12.3,5.6,30.31,NNE,12,2.0,4.0,74,0.00,,,0.00,Wunderground v.1.15,2014-12-29 06:11:00,
2014-12-29 00:16:00,12.1,5.1,30.31,NNE,17,2.0,12.0,73,0.00,,,0.00,Wunderground v.1.15,2014-12-29 06:16:00,
2014-12-29 00:22:00,12.0,4.7,30.31,ENE,72,2.0,12.0,72,0.00,,,0.00,Wunderground v.1.15,2014-12-29 06:22:00,
2014-12-29 00:27:00,11.9,4.6,30.31,NE,51,2.0,12.0,72,0.00,,,0.00,Wunderground v.1.15,2014-12-29 06:27:00,
2014-12-29 00:32:00,11.9,4.6,30.31,ENE,65,1.0,12.0,72,0.00,,,0.00,Wunderground v.1.15,2014-12-29 06:32:00,
2014-12-29 00:37:00,11.8,4.5,30.31,NE,40,1.0,12.0,72,0.00,,,0.00,Wunderground v.1.15,2014-12-29 06:37:00,
2014-12-29 00:42:00,11.8,4.8,30.31,NNE,23,1.0,12.0,73,0.00,,,0.00,Wunderground v.1.15,2014-12-29 06:42:00,
2014-12-29 00:48:00,11.7,4.7,30.32,NNE,22,0.0,12.0,73,0.00,,,0.00,Wunderground v.1.15,2014-12-29 06:48:00,
2014-12-29 00:53:00,11.6,4.3,30.32,NNE,19,1.0,12.0,72,0.00,,,0.00,Wunderground v.1.15,2014-12-29 06:53:00,
2014-12-29 00:58:00,11.5,4.5,30.32,ENE,60,1.0,12.0,73,0.00,,,0.00,Wunderground v.1.15,2014-12-29 06:58:00,
2014-12-29 01:03:00,11.4,4.4,30.32,NE,56,2.0,12.0,73,0.00,,,0.00,Wunderground v.1.15,2014-12-29 07:03:00,
2014-12-29 01:08:00,11.3,4.0,30.32,North,359,2.0,12.0,72,0.00,,,0.00,Wunderground v.1.15,2014-12-29 07:08:00,
2014-12-29 01:13:00,11.2,4.5,30.32,North,11,1.0,12.0,74,0.00,,,0.00,Wunderground v.1.15,2014-12-29 07:13:00,
2014-12-29 01:18:00,11.0,4.0,30.32,ENE,72,2.0,12.0,73,0.00,,,0.00,Wunderground v.1.15,2014-12-29 07:18:00,
2014-12-29 01:23:00,10.9,3.9,30.32,NE,35,2.0,12.0,73,0.00,,,0.00,Wunderground v.1.15,2014-12-29 07:23:00,
2014-12-29 01:28:00,10.8,4.1,30.32,NNE,19,1.0,12.0,74,0.00,,,0.00,Wunderground v.1.15,2014-12-29 07:28:00,
2014-12-29 01:33:00,10.7,3.7,30.32,East,79,1.0,12.0,73,0.00,,,0.00,Wunderground v.1.15,2014-12-29 07:33:00,
2014-12-29 01:38:00,10.6,3.9,30.33,ENE,68,1.0,12.0,74,0.00,,,0.00,Wunderground v.1.15,2014-12-29 07:38:00,
2014-12-29 01:44:00,10.5,3.8,30.33,NNE,12,0.0,12.0,74,0.00,,,0.00,Wunderground v.1.15,2014-12-29 07:44:00,
2014-12-29 01:49:00,10.4,3.8,30.33,ENE,75,1.0,12.0,74,0.00,,,0.00,Wunderground v.1.15,2014-12-29 07:49:00,
2014-12-29 01:54:00,10.4,3.8,30.33,NNE,32,1.0,12.0,74,0.00,,,0.00,Wunderground v.1.15,2014-12-29 07:54:00,
2014-12-29 01:59:00,10.3,3.7,30.33,NE,52,2.0,12.0,74,0.00,,,0.00,Wunderground v.1.15,2014-12-29 07:59:00,
2014-12-29 02:04:00,10.2,3.3,30.33,NNE,30,2.0,12.0,73,0.00,,,0.00,Wunderground v.1.15,2014-12-29 08:04:00,
2014-12-29 02:10:00,10.2,3.3,30.33,ENE,65,2.0,12.0,73,0.00,,,0.00,Wunderground v.1.15,2014-12-29 08:10:00,
2014-12-29 02:15:00,10.1,3.2,30.33,NE,53,2.0,12.0,73,0.00,,,0.00,Wunderground v.1.15,2014-12-29 08:15:00,
2014-12-29 02:20:00,10.0,3.1,30.33,NE,46,2.0,2.0,73,0.00,,,0.00,Wunderground v.1.15,2014-12-29 08:20:00,
2014-12-29 02:25:00,9.9,3.0,30.33,NNE,21,2.0,12.0,73,0.00,,,0.00,Wunderground v.1.15,2014-12-29 08:25:00,
2014-12-29 02:30:00,9.8,2.9,30.33,NE,39,2.0,12.0,73,0.00,,,0.00,Wunderground v.1.15,2014-12-29 08:30:00,
2014-12-29 02:36:00,9.6,3.0,30.34,North,9,2.0,12.0,74,0.00,,,0.00,Wunderground v.1.15,2014-12-29 08:36:00,
2014-12-29 02:41:00,9.6,2.7,30.34,NNE,23,2.0,12.0,73,0.00,,,0.00,Wunderground v.1.15,2014-12-29 08:41:00,
2014-12-29 02:46:00,9.5,2.9,30.34,North,4,2.0,12.0,74,0.00,,,0.00,Wunderground v.1.15,2014-12-29 08:46:00,
2014-12-29 02:51:00,9.5,2.9,30.34,ENE,76,1.0,12.0,74,0.00,,,0.00,Wunderground v.1.15,2014-12-29 08:51:00,
2014-12-29 02:56:00,9.4,2.8,30.34,ENE,76,1.0,12.0,74,0.00,,,0.00,Wunderground v.1.15,2014-12-29 08:56:00,
2014-12-29 03:02:00,9.2,2.6,30.35,NNE,18,1.0,12.0,74,0.00,,,0.00,Wunderground v.1.15,2014-12-29 09:02:00,
2014-12-29 03:07:00,9.1,2.5,30.34,ENE,66,1.0,12.0,74,0.00,,,0.00,Wunderground v.1.15,2014-12-29 09:07:00,
2014-12-29 03:12:00,9.1,2.8,30.35,ENE,72,1.0,12.0,75,0.00,,,0.00,Wunderground v.1.15,2014-12-29 09:12:00,
2014-12-29 03:17:00,8.9,2.6,30.35,North,1,1.0,12.0,75,0.00,,,0.00,Wunderground v.1.15,2014-12-29 09:17:00,
2014-12-29 03:22:00,8.8,2.5,30.35,NE,46,1.0,12.0,75,0.00,,,0.00,Wunderground v.1.15,2014-12-29 09:22:00,
2014-12-29 03:28:00,8.8,2.5,30.35,North,354,2.0,12.0,75,0.00,,,0.00,Wunderground v.1.15,2014-12-29 09:28:00,
2014-12-29 03:33:00,8.7,2.4,30.35,ENE,70,2.0,12.0,75,0.00,,,0.00,Wunderground v.1.15,2014-12-29 09:33:00,
2014-12-29 03:38:00,8.5,2.2,30.35,ENE,63,2.0,12.0,75,0.00,,,0.00,Wunderground v.1.15,2014-12-29 09:38:00,
2014-12-29 03:43:00,8.5,2.2,30.35,NNE,18,2.0,12.0,75,0.00,,,0.00,Wunderground v.1.15,2014-12-29 09:43:00,
2014-12-29 03:48:00,8.3,2.3,30.35,NE,54,1.0,12.0,76,0.00,,,0.00,Wunderground v.1.15,2014-12-29 09:48:00,
2014-12-29 03:54:00,8.2,2.2,30.35,ENE,65,1.0,12.0,76,0.00,,,0.00,Wunderground v.1.15,2014-12-29 09:54:00,
2014-12-29 03:59:00,8.0,1.7,30.36,ENE,72,1.0,12.0,75,0.00,,,0.00,Wunderground v.1.15,2014-12-29 09:59:00,
2014-12-29 04:04:00,7.9,1.6,30.36,ENE,62,1.0,12.0,75,0.00,,,0.00,Wunderground v.1.15,2014-12-29 10:04:00,
2014-12-29 04:09:00,7.8,1.5,30.36,ENE,65,1.0,12.0,75,0.00,,,0.00,Wunderground v.1.15,2014-12-29 10:09:00,
2014-12-29 04:14:00,7.7,1.4,30.37,NNE,24,1.0,12.0,75,0.00,,,0.00,Wunderground v.1.15,2014-12-29 10:14:00,
2014-12-29 04:20:00,7.6,1.3,30.36,ENE,66,1.0,12.0,75,0.00,,,0.00,Wunderground v.1.15,2014-12-29 10:20:00,
2014-12-29 04:25:00,7.5,1.2,30.36,NNE,16,2.0,12.0,75,0.00,,,0.00,Wunderground v.1.15,2014-12-29 10:25:00,
2014-12-29 04:30:00,7.4,1.1,30.36,ENE,70,1.0,12.0,75,0.00,,,0.00,Wunderground v.1.15,2014-12-29 10:30:00,
2014-12-29 04:35:00,7.4,1.4,30.36,NE,36,1.0,12.0,76,0.00,,,0.00,Wunderground v.1.15,2014-12-29 10:35:00,
2014-12-29 04:40:00,7.3,1.3,30.37,NNE,17,1.0,12.0,76,0.00,,,0.00,Wunderground v.1.15,2014-12-29 10:40:00,
2014-12-29 04:45:00,7.2,1.2,30.37,NNE,16,1.0,12.0,76,0.00,,,0.00,Wunderground v.1.15,2014-12-29 10:45:00,
2014-12-29 04:50:00,7.2,1.5,30.37,NNE,26,1.0,12.0,77,0.00,,,0.00,Wunderground v.1.15,2014-12-29 10:50:00,
2014-12-29 04:55:00,7.1,1.4,30.37,North,3,1.0,12.0,77,0.00,,,0.00,Wunderground v.1.15,2014-12-29 10:55:00,
2014-12-29 05:00:00,7.1,1.4,30.37,ENE,60,1.0,1.0,77,0.00,,,0.00,Wunderground v.1.15,2014-12-29 11:00:00,
2014-12-29 05:05:00,7.1,1.4,30.37,NNE,19,0.0,12.0,77,0.00,,,0.00,Wunderground v.1.15,2014-12-29 11:05:00,
2014-12-29 05:10:00,7.0,1.3,30.37,NE,53,0.0,12.0,77,0.00,,,0.00,Wunderground v.1.15,2014-12-29 11:10:00,
2014-12-29 05:16:00,7.0,1.6,30.37,ENE,68,0.0,12.0,78,0.00,,,0.00,Wunderground v.1.15,2014-12-29 11:16:00,
2014-12-29 05:21:00,6.9,1.5,30.38,NNE,23,0.0,12.0,78,0.00,,,0.00,Wunderground v.1.15,2014-12-29 11:21:00,
2014-12-29 05:26:00,6.8,1.4,30.38,NNE,14,0.0,12.0,78,0.00,,,0.00,Wunderground v.1.15,2014-12-29 11:26:00,
2014-12-29 05:31:00,6.7,1.3,30.38,NNE,18,0.0,12.0,78,0.00,,,0.00,Wunderground v.1.15,2014-12-29 11:31:00,